Tracking 19854 objects as of 22-Sep-2019
HD Live streaming from Space Station
objects crossing your sky now

USA 48

Track USA 48 now!
USA 48 is classified as:


NORAD ID: 20355
Int'l Code: 1989-090B
Perigee: 34,476.8 km
Apogee: 36,849.2 km
Inclination: 18.2 °
Period: 1,429.4 minutes
Semi major axis: 42033 km
RCS: Unknown
Launch date: November 23, 1989
Source: United States (US)
Launch site: AIR FORCE EASTERN TEST RANGE (AFETR)
aabbcc
Your satellite tracking list
Your tracking list is empty




NASA's NSSDC Master Catalog

Two Line Element Set (TLE):
1 20355U 89090B   19236.46152295 0.00000000  00000-0  00000-0 0    09
2 20355  18.2330   6.1102 0282202  46.1642 316.0671  1.00739950    01
Source of the keplerian elements: McCants